Flag for Spain Weather past 2 weeks in Las Palmas, Canary Islands, Spain

Now
73 °F

Passing clouds.


Feels Like: 73 °F
Forecast: 73 / 81 °F
Wind: 20 mph from Northeast

Location: Las Palmas De Gran Canaria / Gando

Current Time: Aug 20, 2014 at 6:00:21 AM

Latest Report: Aug 20, 2014 at 5:30 AM


Visibility: N/A

Pressure: 29.98 "Hg

Humidity: 83%

Dew point: 68 °F

Location of Las PalmasLocation

Historic Weather in Las Palmas — Graph

°F

Las Palmas temperature yesterday

Maximum temperature yesterday: 81 °F (at 1:00 PM)
Minimum temperature yesterday: 72 °F (at 12:30 AM)
Average temperature yesterday: 75 °F

Past Weeks' High & Low Weather Summary

 TemperatureHumidityPressure
High84 °F (Aug 14, 1:00 PM)83% (Aug 6, 2:30 AM)30.12 "Hg (Aug 6, 2:30 AM)
Low72 °F (Aug 5, 5:30 AM)48% (Aug 14, 1:00 PM)29.89 "Hg (Aug 17, 6:00 PM)
Average76 °F68%30.01 "Hg
* Reported Aug 5 4:00 AM — Aug 20 4:30 AM, Las Palmas, Weather by CustomWeather, © 2014

Note: Actual official high and low records may vary slightly from our data, if they occured in-between our weather recording intervals... More about our weather records

Advertising

Las Palmas weather history for previous 24 hours

 ConditionsComfort  
Time TempWeatherWind HumidityBarometerVisibility
4:30 AM
Aug 20
73 °FPassing clouds.18 mph83%29.98 "HgN/A
4:00 AM73 °FPassing clouds.20 mph83%29.98 "HgN/A
3:30 AM73 °FPassing clouds.21 mph83%29.98 "HgN/A
3:00 AM73 °FPassing clouds.20 mph83%30.01 "HgN/A
2:30 AM73 °FPassing clouds.22 mph83%30.01 "HgN/A
2:00 AM73 °FPassing clouds.22 mph83%30.01 "HgN/A
1:30 AM73 °FPassing clouds.23 mph83%30.01 "HgN/A
1:00 AM73 °FPassing clouds.20 mph83%30.04 "HgN/A
12:30 AM73 °FPassing clouds.20 mph83%30.04 "HgN/A
12:00 AM73 °FPassing clouds.20 mph83%30.04 "HgN/A
11:30 PM
Aug 19
73 °FPassing clouds.20 mph83%30.04 "HgN/A
11:00 PM73 °FPassing clouds.20 mph78%30.04 "HgN/A
10:30 PM73 °FPassing clouds.21 mph83%30.04 "HgN/A
10:00 PM75 °FPassing clouds.22 mph74%30.04 "HgN/A
9:30 PM75 °FPartly sunny.22 mph74%30.04 "HgN/A
9:00 PM75 °FPartly sunny.24 mph74%30.04 "HgN/A
8:30 PM75 °FScattered clouds.24 mph74%30.01 "HgN/A
8:00 PM75 °FScattered clouds.25 mph74%30.01 "HgN/A
7:30 PM75 °FPassing clouds.28 mph74%29.98 "HgN/A
7:00 PM77 °FPassing clouds.30 mph69%29.98 "HgN/A
6:30 PM77 °FPassing clouds.28 mph69%29.98 "HgN/A
6:00 PM79 °FPassing clouds.30 mph65%29.98 "HgN/A
5:30 PM79 °FPassing clouds.29 mph61%29.98 "HgN/A
5:00 PM79 °FPassing clouds.30 mph61%29.98 "HgN/A
4:30 PM81 °FPassing clouds.31 mph62%29.98 "HgN/A
4:00 PM81 °FPassing clouds.29 mph58%29.98 "HgN/A
3:30 PM81 °FPassing clouds.30 mph58%29.98 "HgN/A
3:00 PM81 °FPassing clouds.30 mph58%30.01 "HgN/A
2:30 PM79 °FPassing clouds.31 mph61%30.01 "HgN/A
2:00 PM81 °FPassing clouds.28 mph58%30.01 "HgN/A
1:30 PM79 °FPassing clouds.25 mph61%30.01 "HgN/A
1:00 PM81 °FPassing clouds.24 mph58%30.04 "HgN/A
12:30 PM79 °FPassing clouds.22 mph61%30.04 "HgN/A
12:00 PM79 °FPassing clouds.24 mph61%30.04 "HgN/A
11:30 AM77 °FPassing clouds.25 mph65%30.04 "HgN/A
11:00 AM77 °FPassing clouds.24 mph61%30.04 "HgN/A
10:30 AM75 °FPassing clouds.25 mph69%30.01 "HgN/A
10:00 AM75 °FScattered clouds.24 mph65%30.01 "HgN/A
9:30 AM75 °FScattered clouds.24 mph65%30.01 "HgN/A
9:00 AM73 °FScattered clouds.23 mph69%30.01 "HgN/A
8:30 AM73 °FPassing clouds.24 mph69%29.98 "HgN/A
8:00 AM72 °FPassing clouds.26 mph73%29.95 "HgN/A
7:30 AM73 °FPassing clouds.23 mph69%29.95 "HgN/A
7:00 AM72 °FPassing clouds.22 mph73%29.95 "HgN/A
6:30 AM72 °FPassing clouds.24 mph73%29.95 "HgN/A
6:00 AM72 °FPassing clouds.24 mph73%29.95 "HgN/A
Weather by CustomWeather, © 2014

See weather overviewHow to use our weather pages